カタログに戻る

NOAA 16 DEB

運用中SSO
NORAD 41248·DEBRIS·🇺🇸 United States

打ち上げ Sep 21, 2000 から Vandenberg Space Force Base

Loading…

次のパス (今後24時間)

TLE

最新Source: Space-Track

元期: Sep 13, 2026, 11:41 UTC

1 41248U 00055EY  26256.48736957  .00003491  00000-0  16400-2 0  9999
2 41248  98.8571 268.0236 0068606 175.6941 184.4839 14.19453537546122

AllMySatでNOAA 16 DEBをリアルタイム追跡

Download on the App Store